CAPE
0 0 0 0 0 0 6 120 120 42 200 136 250 155 188 5 24 22 26 31 58 31 71 157 319 399 218 33 22 34 46 129 1 5 29 41 71 381 262 195 805 796 689 457
0 0 0 0 0 0 0 68 124 200 423 574 401 320 219 0 0 34 26 48 56 25 47 158 265 328 177 92 72 111 238 120 0 22 319 170 12 512 314 412 299 393 272 24
0 0 0 0 0 0 0 44 218 172 265 302 340 260 304 37 0 0 9 69 38 40 39 65 214 173 127 96 67 135 74 160 217 111 237 134 539 778 728 233 25 0 310 300
0 0 0 0 0 0 0 108 347 30 57 100 260 50 49 102 0 0 0 35 21 21 37 81 105 169 114 134 117 163 25 117 339 186 317 275 383 754 619 471 138 24 15 943
0 0 0 0 0 0 0 242 36 49 41 0 0 34 6 148 21 0 0 15 30 51 60 69 87 136 192 190 181 146 40 84 320 283 273 363 247 375 372 397 327 185 234 798
0 0 0 0 0 0 19 28 0 0 0 0 0 34 0 107 0 27 9 0 17 126 146 53 75 104 144 169 236 188 121 139 179 154 256 264 355 445 239 348 844 341 205 474
0 0 0 0 0 0 0 0 1 23 14 0 0 10 0 0 13 20 52 12 1 77 167 96 38 149 106 122 218 235 150 154 218 169 288 373 275 407 219 331 517 640 365 370
0 0 0 0 0 0 0 0 0 0 21 18 0 0 112 0 2 55 21 45 18 0 87 124 60 75 182 176 353 384 245 182 167 308 283 455 338 377 306 214 191 248 470 376
0 0 0 0 0 0 0 0 0 0 0 0 0 24 58 0 0 0 0 9 33 16 15 68 68 30 247 302 420 409 342 245 170 265 287 449 483 348 295 377 325 276 326 357
0 0 0 0 0 0 0 0 0 0 0 0 1 63 0 30 0 0 3 0 7 27 46 2 48 5 56 389 489 472 425 357 221 180 241 339 446 433 317 233 355 640 310 409
0 0 0 0 0 0 0 0 0 0 0 0 0 0 21 0 0 0 2 0 0 0 0 31 2 37 18 242 425 532 458 290 72 190 253 223 335 401 376 181 153 436 488 604
0 0 0 0 0 0 0 0 0 0 0 0 0 0 36 0 20 0 0 0 0 4 19 191 22 48 16 74 328 515 527 295 83 174 274 224 230 467 335 265 305 298 396 456
0 0 0 0 0 0 0 0 0 0 0 0 0 0 0 7 0 0 0 2 0 19 54 68 19 52 209 127 236 709 659 363 149 127 235 353 309 366 467 337 371 237 211 238
0 0 0 0 0 0 0 0 0 0 0 0 0 0 0 4 10 0 0 28 38 44 206 143 31 59 110 64 66 53 47 54 94 184 200 325 283 277 366 366 346 331 177 164
0 0 0 0 0 0 0 0 0 0 0 0 0 8 0 0 23 0 0 1 195 72 14 128 67 64 131 45 53 48 10 0 0 0 37 93 11 79 157 298 328 311 295 282
0 0 0 0 0 0 0 0 0 0 0 0 0 17 0 0 0 0 1 123 345 288 278 164 48 76 124 97 65 113 69 6 0 0 0 0 0 0 66 129 203 290 335 367
0 0 0 0 0 0 0 0 0 0 0 2 46 22 0 0 56 383 430 374 337 238 530 249 172 183 99 32 79 78 57 79 4 0 0 0 0 0 0 7 96 208 214 190
0 0 0 0 0 0 0 0 0 5 20 18 65 63 13 203 372 464 389 298 275 210 168 184 236 220 156 120 73 87 58 26 9 1 4 1 0 0 0 0 51 142 117 116
0 0 0 0 0 0 0 0 6 26 26 99 121 53 398 480 238 324 374 289 164 93 87 75 54 66 20 1 6 9 42 75 2 1 1 0 0 0 0 9 23 0 48 75
0 0 0 0 0 0 0 1 1 4 25 29 74 230 186 536 333 202 297 179 181 100 55 18 0 0 0 0 0 0 0 0 2 14 23 13 3 5 20 34 36 15 17 28
0 0 0 0 0 0 0 24 3 0 0 52 110 236 524 575 83 53 100 54 53 16 2 0 0 0 0 0 0 0 0 0 1 61 17 38 26 15 1 1 1 1 1 1
0 0 0 0 0 0 0 5 4 0 32 68 68 145 309 252 154 172 123 20 0 0 0 0 0 0 0 0 0 1 1 1 9 29 0 1 1 1 0 0 2 1 1 1
0 0 0 0 0 0 0 1 16 33 151 105 94 6 87 285 258 172 70 0 0 0 0 0 0 0 0 0 0 0 0 0 26 1 1 0 0 0 0 0 0 0 0 0
0 0 0 0 0 0 0 0 75 78 115 113 13 0 75 369 208 134 50 3 0 0 0 0 0 0 0 0 0 0 0 1 0 1 0 0 0 0 0 0 0 0 1 1
0 0 0 0 0 0 0 0 87 165 131 180 53 0 0 146 107 66 23 0 0 0 0 0 0 0 0 0 0 0 0 0 0 0 0 0 0 0 0 0 0 0 0 0
0 0 0 0 0 0 0 0 33 105 129 142 39 0 34 30 98 28 13 12 5 5 0 0 0 0 0 0 0 0 0 0 0 0 0 0 0 0 0 0 0 0 0 0
CIN
-0 -0 -0 -0 -0 -0 -44 -59 -55 -130 -161 -162 -100 -54 -64 -204 -132 -139 -128 -129 -151 -168 -181 -191 -147 -154 -162 -179 -181 -170 -174 -181 -49 -239 -192 -174 -133 -121 -182 -199 -126 -158 -200 -223
-0 -0 -0 -0 -0 -0 -0 -24 -71 -126 -137 -79 -86 -98 -55 -0 -0 -142 -159 -120 -135 -176 -174 -163 -165 -151 -172 -199 -171 -176 -158 -200 -0 -192 -145 -157 -160 -151 -153 -173 -185 -197 -203 -127
-0 -0 -0 -0 -0 -0 -0 -52 -83 -49 -151 -112 -85 -87 -110 -172 -0 -0 -146 -120 -141 -137 -203 -171 -179 -175 -173 -205 -182 -160 -208 -178 -177 -175 -166 -182 -140 -156 -135 -189 -259 -0 -201 -199
-0 -0 -0 -0 -0 -0 -0 -117 -60 -48 -113 -60 -100 -49 -169 -235 -0 -0 -46 -145 -141 -172 -197 -169 -191 -216 -198 -179 -173 -151 -241 -191 -160 -180 -119 -109 -92 -86 -124 -130 -192 -150 -108 -123
-0 -0 -0 -0 -0 -0 -0 -71 -64 -72 -125 -0 -0 -70 -154 -201 -240 -0 -1 -167 -132 -119 -134 -171 -209 -220 -205 -155 -169 -177 -211 -188 -156 -175 -144 -115 -104 -108 -147 -146 -129 -180 -189 -114
-0 -0 -0 -0 -0 -0 -76 -69 -0 -0 -0 -0 -0 -75 -0 -193 -0 -224 -73 -0 -194 -152 -102 -167 -220 -197 -198 -168 -142 -161 -221 -185 -182 -187 -164 -134 -95 -101 -125 -139 -79 -132 -171 -147
-0 -0 -0 -0 -0 -0 -0 -0 -7 -22 -28 -2 -0 -102 -0 -0 -315 -335 -296 -282 -150 -146 -103 -189 -235 -202 -231 -222 -170 -162 -196 -185 -169 -174 -151 -130 -139 -126 -126 -122 -109 -119 -149 -142
-0 -0 -0 -0 -0 -0 -0 -0 -0 -0 -18 -32 -0 -0 -206 -0 -194 -302 -379 -312 -297 -0 -92 -97 -173 -214 -214 -204 -174 -150 -175 -161 -194 -158 -169 -137 -160 -156 -173 -155 -134 -148 -146 -147
-0 -0 -0 -0 -0 -0 -0 -0 -0 -0 -0 -0 -0 -213 -225 -0 -0 -11 -3 -364 -346 -355 -263 -88 -129 -274 -173 -148 -164 -175 -168 -163 -196 -172 -166 -148 -158 -175 -154 -141 -187 -187 -178 -168
-0 -0 -0 -0 -0 -0 -0 -0 -0 -0 -0 -0 -21 -126 -0 -264 -0 -0 -445 -0 -197 -358 -293 -46 -236 -113 -199 -141 -148 -158 -179 -171 -206 -194 -180 -147 -161 -163 -173 -188 -145 -146 -173 -157
-0 -0 -0 -0 -0 -0 -0 -0 -0 -0 -0 -0 -0 -0 -364 -106 -0 -88 -465 -0 -0 -120 -18 -275 -60 -236 -206 -124 -125 -158 -189 -191 -249 -216 -176 -163 -140 -140 -149 -196 -198 -139 -152 -137
-0 -0 -0 -0 -0 -0 -0 -0 -0 -0 -0 -0 -0 -0 -322 -0 -368 -0 -0 -0 -0 -309 -321 -198 -88 -316 -290 -269 -185 -143 -161 -195 -249 -207 -164 -161 -151 -110 -140 -161 -166 -170 -137 -147
-0 -0 -0 -0 -0 -0 -0 -0 -0 -0 -0 -0 -0 -0 -0 -236 -0 -0 -0 -58 -0 -175 -153 -198 -308 -296 -196 -231 -182 -104 -93 -179 -246 -236 -172 -122 -133 -122 -105 -128 -136 -174 -171 -156
-0 -0 -0 -0 -0 -0 -0 -0 -0 -0 -0 -0 -0 -0 -0 -44 -216 -0 -0 -232 -152 -78 -43 -95 -185 -240 -235 -266 -235 -244 -241 -254 -264 -252 -202 -152 -143 -116 -98 -116 -132 -136 -186 -184
-0 -0 -0 -0 -0 -0 -0 -0 -0 -0 -0 -0 -0 -91 -0 -0 -322 -0 -0 -51 -90 -139 -176 -60 -62 -106 -141 -177 -197 -217 -180 -0 -0 -85 -253 -230 -54 -187 -149 -97 -96 -129 -137 -148
-0 -0 -0 -0 -0 -0 -0 -0 -0 -0 -0 -2 -3 -140 -0 -0 -0 -0 -4 -133 -91 -26 -74 -71 -104 -119 -209 -79 -31 -101 -75 -81 -3 -0 -0 -0 -0 -0 -149 -162 -129 -112 -115 -131
-0 -0 -0 -0 -0 -0 -0 -0 -0 -0 -0 -24 -112 -129 -0 -0 -139 -122 -125 -122 -136 -72 -11 -106 -82 -175 -152 -111 -83 -118 -127 -39 -65 -0 -0 -0 -0 -0 -0 -89 -154 -118 -123 -137
-0 -0 -0 -0 -0 -0 -0 -0 -0 -93 -116 -134 -124 -245 -308 -176 -164 -116 -143 -146 -187 -156 -125 -85 -70 -64 -110 -116 -138 -158 -226 -212 -144 -0 -52 -33 -0 -0 -0 -0 -136 -135 -156 -149
-0 -0 -0 -0 -0 -0 -0 -0 -71 -71 -95 -230 -209 -272 -167 -151 -175 -161 -161 -153 -196 -219 -249 -252 -247 -242 -282 -42 -297 -238 -145 -33 -14 -4 -0 -0 -0 -0 -0 -167 -129 -6 -199 -189
-0 -0 -0 -0 -0 -0 -0 -15 -17 -133 -39 -278 -284 -254 -268 -120 -87 -176 -168 -196 -223 -225 -241 -254 -0 -0 -0 -0 -0 -0 -0 -0 -75 -70 -66 -87 -161 -182 -99 -64 -85 -93 -179 -221
-0 -0 -0 -0 -0 -0 -0 -128 -81 -0 -0 -312 -286 -264 -194 -138 -238 -292 -250 -257 -242 -170 -172 -0 -0 -0 -0 -0 -0 -0 -0 -0 -0 -117 -158 -155 -129 -97 -0 -0 -0 -0 -0 -0
-0 -0 -0 -0 -0 -0 -0 -97 -34 -0 -233 -270 -327 -307 -243 -254 -346 -272 -238 -255 -45 -0 -0 -0 -0 -0 -0 -0 -0 -0 -0 -0 -80 -179 -0 -0 -0 -0 -0 -0 -0 -0 -0 -0
-0 -0 -0 -0 -0 -0 -0 -18 -229 -359 -172 -265 -275 -153 -351 -271 -273 -264 -266 -0 -0 -0 -0 -0 -0 -0 -0 -0 -0 -0 -0 -0 -144 -0 -0 -0 -0 -0 -0 -0 -0 -0 -0 -0
-0 -0 -0 -0 -0 -0 -0 -5 -298 -277 -183 -333 -378 -0 -303 -158 -213 -250 -318 -238 -0 -0 -0 -0 -0 -0 -0 -0 -0 -0 -0 -0 -0 -0 -0 -0 -0 -0 -0 -0 -0 -0 -0 -0
-0 -0 -0 -0 -0 -0 -0 -0 -208 -237 -270 -260 -321 -0 -0 -188 -199 -227 -262 -0 -0 -0 -0 -0 -0 -0 -0 -0 -0 -0 -0 -0 -0 -0 -0 -0 -0 -0 -0 -0 -0 -0 -0 -0
-0 -0 -0 -0 -0 -0 -0 -0 -297 -220 -193 -193 -216 -42 -245 -219 -231 -285 -289 -316 -403 -424 -0 -0 -0 -0 -0 -0 -0 -0 -0 -0 -0 -0 -0 -0 -0 -0 -0 -0 -0 -0 -0 -0
Wind_Speed
4 5 6 11 5 3 4 4 7 3 7 5 12 7 7 7 4 11 11 10 9 9 7 11 12 12 11 8 8 12 11 8 5 2 3 2 3 2 1 3 5 5 5 5
6 5 11 4 6 4 5 3 5 1 6 2 4 12 5 8 7 10 13 12 12 8 8 11 11 12 12 11 9 7 9 7 6 4 3 2 2 2 2 3 3 4 5 4
6 6 4 4 4 3 2 7 4 4 6 2 3 4 5 2 2 5 6 11 12 13 13 12 13 13 12 12 13 12 11 8 6 5 3 2 2 3 3 1 2 3 5 5
6 4 7 5 7 7 5 9 12 6 6 4 8 4 4 5 11 8 11 9 11 10 8 12 14 14 14 13 12 11 9 9 7 8 6 5 3 4 4 5 3 4 6 5
8 3 5 5 9 9 10 14 12 1 5 2 3 3 3 4 2 7 13 10 10 12 12 15 15 16 16 12 12 9 8 7 7 7 7 6 4 3 2 2 5 4 4 4
8 4 5 7 2 4 7 6 8 6 5 2 6 6 5 3 4 4 10 12 11 15 12 11 10 10 9 9 10 9 8 8 6 7 7 8 8 6 3 3 3 4 3 4
6 3 3 3 3 5 8 7 2 3 3 6 3 2 2 2 2 3 8 14 12 12 12 10 12 13 12 12 11 9 10 10 8 8 7 7 8 7 8 7 5 5 3 3
2 8 4 2 7 8 5 9 7 6 4 6 1 2 5 3 2 2 7 2 6 7 11 11 15 12 14 14 13 13 12 11 9 8 8 7 7 4 5 6 5 4 4 4
4 6 3 2 4 7 4 2 3 8 4 3 2 2 1 4 3 5 5 7 3 3 5 13 12 12 13 14 16 15 12 12 9 10 7 7 7 7 6 7 5 4 4 3
6 0 2 4 4 5 3 5 3 5 4 2 4 5 5 5 1 3 4 3 2 2 4 8 12 14 12 14 13 13 13 15 12 11 8 7 7 7 6 5 6 5 5 5
6 3 3 3 3 3 3 3 8 7 3 6 2 7 6 6 5 2 4 6 6 3 5 5 10 13 12 10 11 13 13 14 12 12 10 8 7 7 6 6 6 6 4 5
2 6 3 2 1 1 2 4 6 6 4 1 4 7 2 5 3 5 6 5 3 4 5 7 8 9 12 14 10 12 12 13 13 12 11 10 8 7 7 7 7 6 6 5
7 3 4 8 7 4 2 4 5 6 4 5 6 6 3 5 1 4 3 2 5 7 4 7 6 7 6 5 8 11 11 11 8 9 9 8 8 8 8 7 7 7 7 7
9 4 8 8 8 4 3 4 4 6 4 5 6 4 6 8 7 5 5 3 2 5 3 6 5 7 9 6 6 4 4 1 4 7 9 10 9 10 9 8 7 7 7 7
6 4 3 4 5 3 4 7 8 5 6 6 6 8 5 8 10 10 5 5 4 6 6 8 2 3 7 7 7 6 4 3 3 3 5 6 4 5 7 7 7 8 8 8
3 2 5 2 5 7 3 7 7 4 4 3 2 4 3 3 5 5 7 6 8 4 2 6 7 2 6 6 5 6 6 6 4 5 4 3 3 4 5 6 6 6 8 9
5 7 4 3 3 4 3 5 4 4 4 6 5 8 8 4 6 5 4 4 3 5 6 7 5 2 4 4 4 5 3 6 5 4 3 4 3 3 2 3 6 7 8 6
7 6 3 3 2 2 7 4 4 6 4 4 2 2 5 5 3 4 3 5 6 7 6 7 6 3 3 2 1 2 4 4 5 7 5 1 4 5 3 4 5 6 5 8
6 6 4 5 4 4 3 5 6 6 5 5 6 6 6 7 4 4 5 3 3 5 3 5 2 2 3 3 2 2 1 5 6 7 8 10 7 4 5 4 5 5 4 4
6 6 7 3 5 7 8 4 4 5 3 8 6 7 7 6 3 2 5 6 6 7 6 6 3 4 5 5 5 0 2 2 3 4 6 6 6 8 5 3 4 3 5 3
3 4 6 3 3 6 6 5 1 6 10 8 8 6 8 5 4 6 9 6 5 5 7 6 5 4 1 4 5 2 2 2 4 4 3 2 3 3 4 3 2 3 4 5
6 6 4 3 4 3 7 6 8 8 1 7 7 7 6 4 7 10 8 8 7 7 6 5 5 4 2 3 4 3 3 5 4 4 5 5 5 4 3 6 3 6 4 7
2 7 7 8 8 4 3 6 3 6 7 6 7 6 6 8 5 8 7 7 6 6 5 4 5 3 3 4 3 3 4 5 1 7 7 8 8 6 5 5 5 5 5 4
2 3 3 5 1 3 3 3 5 5 6 5 6 7 7 8 8 6 7 7 6 5 5 4 5 4 3 4 4 4 6 4 5 7 7 6 7 7 7 5 5 4 4 3
5 4 5 1 0 5 1 3 6 6 6 7 6 6 7 8 7 9 6 6 5 5 4 3 5 4 1 1 1 3 3 3 6 5 6 5 5 6 5 6 4 4 3 3
4 7 5 6 7 6 6 5 7 8 8 8 8 6 6 8 10 7 6 6 6 6 5 4 3 4 2 1 2 2 3 4 6 5 4 3 4 4 3 4 5 11 5 7
Wind_Direction
356 79 205 212 167 160 133 167 205 246 178 153 199 219 211 193 192 166 170 166 174 184 173 173 171 163 168 166 179 190 187 186 149 140 132 202 229 253 193 166 199 163 162 160
27 231 236 126 178 220 202 189 217 83 155 145 188 227 197 182 203 183 169 176 187 159 157 172 169 174 176 172 192 190 188 178 170 157 155 167 175 210 160 144 192 161 167 173
163 234 138 182 272 242 254 198 190 194 158 203 345 284 177 239 190 173 206 187 186 181 171 174 175 182 176 186 189 195 192 180 174 171 119 90 76 40 64 101 218 213 195 195
224 255 196 179 243 148 253 181 183 207 101 239 167 276 271 178 204 194 207 189 185 178 190 181 181 182 186 194 187 189 193 177 182 174 160 153 172 164 204 179 186 186 205 197
255 245 173 186 223 167 221 170 184 187 98 60 320 62 257 103 252 229 215 214 195 196 185 186 184 193 190 180 188 188 184 193 185 176 178 161 163 206 190 170 185 194 199 216
237 223 169 205 146 184 127 76 38 42 77 9 231 156 321 5 306 288 222 219 193 191 189 188 188 176 189 176 185 183 180 193 183 189 181 177 177 184 178 213 196 216 179 205
332 251 255 167 131 21 76 72 4 15 19 220 146 72 218 315 322 323 280 204 207 190 188 169 169 178 178 176 179 182 184 199 182 192 191 195 197 177 196 194 208 184 181 203
183 319 192 191 159 181 166 154 150 181 191 242 268 268 213 201 284 347 40 28 180 213 198 183 185 182 187 184 182 183 188 198 192 186 207 193 208 186 190 196 205 215 207 205
166 274 288 52 122 122 185 106 172 104 9 72 280 217 317 178 19 352 40 71 51 267 220 182 187 187 186 190 192 189 186 198 191 199 194 199 184 184 191 205 196 206 216 209
214 242 354 356 67 47 120 149 69 19 134 208 302 280 230 230 317 324 349 10 249 263 234 232 176 187 195 196 194 191 188 197 197 191 192 201 192 188 199 192 199 204 221 208
143 103 286 40 44 177 23 61 55 104 113 151 188 266 212 188 193 236 267 299 295 296 285 245 218 179 180 191 194 195 191 193 190 186 192 187 197 197 190 194 203 211 217 222
86 126 105 188 305 340 187 138 127 118 219 105 143 270 74 136 188 260 270 299 262 248 301 294 203 156 165 185 184 199 201 201 196 193 189 197 190 191 194 200 199 188 212 224
184 21 54 349 358 350 184 134 105 108 91 188 141 263 176 158 189 290 285 18 345 344 354 28 73 124 120 152 184 190 206 203 197 179 189 195 195 184 201 203 198 188 197 207
91 120 152 184 207 154 155 148 128 104 114 175 225 251 219 217 213 249 269 126 312 306 41 84 55 103 102 90 79 105 129 214 177 169 178 183 192 198 205 207 200 201 204 202
102 141 149 245 237 186 183 171 164 154 171 158 226 205 215 203 197 219 233 308 314 297 67 68 132 69 118 106 100 79 86 145 174 161 182 156 171 203 191 202 219 206 201 212
12 149 170 24 350 156 165 190 178 155 135 284 112 270 153 188 162 226 244 262 249 238 55 38 60 139 85 122 161 158 190 224 198 182 149 128 163 189 204 195 214 220 220 206
119 134 103 219 350 89 357 241 148 146 158 147 168 227 146 189 216 214 204 216 124 72 75 114 138 136 142 169 182 242 216 188 193 164 188 169 231 275 286 278 214 208 220 217
129 105 96 169 54 158 236 316 184 126 161 177 169 114 164 162 97 128 134 137 127 123 98 92 111 126 95 125 109 300 292 230 184 172 179 214 232 246 295 301 282 231 195 215
131 123 98 135 161 268 296 179 154 162 229 188 145 137 125 118 101 33 79 78 101 120 99 88 103 90 84 75 83 79 359 211 198 199 191 191 211 220 235 259 272 272 204 192
62 77 115 134 143 188 232 276 149 104 302 167 161 177 144 142 140 215 122 107 102 106 115 111 74 49 41 338 317 306 270 199 231 237 202 201 195 211 209 244 304 275 250 247
72 40 145 142 166 285 234 165 135 95 233 150 154 163 162 165 184 155 132 117 118 120 125 124 100 80 352 314 318 290 278 298 306 278 234 216 176 128 100 110 146 124 75 88
150 137 170 97 97 245 155 77 151 208 307 146 146 172 156 130 129 133 130 131 135 135 137 128 108 99 39 354 339 345 8 324 311 108 100 89 89 93 93 105 124 90 86 95
98 171 177 158 208 245 253 174 183 161 148 180 146 127 130 125 128 140 143 144 152 145 144 132 117 77 36 10 360 331 333 321 47 90 83 80 68 55 49 47 40 69 78 71
355 127 102 103 247 111 187 62 146 162 149 126 112 134 138 135 146 138 145 151 151 154 143 142 115 86 37 11 349 341 319 318 90 84 86 78 78 71 45 39 27 29 41 105
199 130 154 78 28 86 35 258 173 132 104 113 131 147 150 135 155 159 160 159 158 148 146 154 136 124 96 44 15 345 344 73 86 88 91 84 83 82 77 63 27 52 44 330
205 170 139 208 203 149 185 194 151 143 167 175 145 137 157 160 155 135 147 175 168 165 165 167 145 120 118 5 70 51 48 94 107 105 87 91 103 100 103 111 97 62 54 53